Sioux City, IA

6:50 AM CDT on April 22, 2018 (GMT -0500)
Sioux Gateway

Weather History for KSUX - May, 2014

Change the Weather History Date:

Monday, May 5, 2014

  Actual Average Record
Temperature  
Mean Temperature 58 °F 57 °F  
Max Temperature 74 °F 70 °F 95 °F (2004)
Min Temperature 42 °F 45 °F 28 °F (1944)
Degree Days  
Heating Degree Days 7 9  
Month to date heating degree days 63 47  
Since 1 July heating degree days 7112 6699  
Cooling Degree Days 0 1  
Month to date cooling degree days 0 5  
Year to date cooling degree days 9 16  
Growing Degree Days 8 (Base 50)    
Moisture  
Dew Point 39 °F    
Average Humidity 53    
Maximum Humidity 76    
Minimum Humidity 29    
Precipitation  
Precipitation 0.00 in 0.11 in 0.98 in (2001)
Month to date precipitation T 0.57  
Year to date precipitation 3.22 6.81  
Snow  
Snow 0.00 in 0.00 in T in (1989)
Month to date snowfall 0.0 0.1  
Since 1 July snowfall 23.8 34.9  
Snow Depth 0.00 in    
Sea Level Pressure  
Sea Level Pressure 29.86 in    
Wind  
Wind Speed 11 mph (ENE)    
Max Wind Speed 20 mph    
Max Gust Speed 25 mph    
Visibility 10 miles    
Events      
T = Trace of Precipitation, MM = Missing Value Source: NWS Daily Summary

Daily Weather History Graph

Daily Weather History Graph

Search for Another Location

Airport or City:

Astronomy

May. 05, 2014 Rise Set
Actual Time 6:15 AM CDT 8:29 PM CDT
Civil Twilight 5:44 AM CDT 9:00 PM CDT
Nautical Twilight 5:05 AM CDT 9:39 PM CDT
Astronomical Twilight 4:23 AM CDT 10:22 PM CDT
Moon 11:36 AM CDT (5/5) 1:14 AM CDT (5/5)
Length of Visible Light 15h 16m
Length of Day
14h 14m
Waxing Crescent, 37% of the Moon is Illuminated
May 5
Waxing Crescent
May 6
First Quarter
May 14
Full
May 21
Last Quarter
May 28
New

Hourly Weather History & Observations

Time (CDT) Temp. Windchill Dew Point Humidity Pressure Visibility Wind Dir Wind Speed Gust Speed Precip Events Conditions
12:52 AM 51.8 °F - 39.2 °F 62% 29.90 in 10.0 mi ENE 10.4 mph - N/A   Clear
1:52 AM 48.9 °F - 37.9 °F 66% 29.89 in 10.0 mi ENE 6.9 mph - N/A   Clear
2:52 AM 48.0 °F - 37.9 °F 68% 29.87 in 10.0 mi East 6.9 mph - N/A   Clear
3:52 AM 46.9 °F - 37.9 °F 71% 29.86 in 10.0 mi ENE 4.6 mph - N/A   Clear
4:52 AM 45.0 °F 41.2 °F 37.0 °F 74% 29.87 in 10.0 mi NNE 6.9 mph - N/A   Clear
5:52 AM 44.1 °F 40.1 °F 36.0 °F 73% 29.89 in 10.0 mi NNE 6.9 mph - N/A   Clear
6:52 AM 45.0 °F 41.8 °F 36.0 °F 71% 29.90 in 10.0 mi NE 5.8 mph - N/A   Clear
7:52 AM 46.9 °F - 37.0 °F 68% 29.91 in 10.0 mi East 8.1 mph - N/A   Clear
8:52 AM 52.0 °F - 37.9 °F 59% 29.91 in 10.0 mi ENE 9.2 mph - N/A   Clear
9:52 AM 57.0 °F - 39.0 °F 51% 29.91 in 10.0 mi NE 9.2 mph - N/A   Clear
10:52 AM 60.1 °F - 39.0 °F 46% 29.90 in 10.0 mi NE 11.5 mph - N/A   Clear
11:52 AM 64.0 °F - 39.9 °F 41% 29.89 in 10.0 mi NE 17.3 mph 24.2 mph N/A   Clear
12:52 PM 66.2 °F - 39.2 °F 37% 29.87 in 10.0 mi ENE 16.1 mph - N/A   Clear
1:52 PM 69.1 °F - 39.9 °F 35% 29.86 in 10.0 mi ENE 15.0 mph - N/A   Clear
2:52 PM 72.0 °F - 39.9 °F 31% 29.85 in 10.0 mi NE 16.1 mph - N/A   Clear
3:52 PM 73.0 °F - 41.0 °F 31% 29.83 in 10.0 mi ENE 16.1 mph - N/A   Clear
4:52 PM 73.9 °F - 39.9 °F 29% 29.81 in 10.0 mi East 12.7 mph 21.9 mph N/A   Clear
5:52 PM 73.0 °F - 39.0 °F 29% 29.81 in 10.0 mi ENE 16.1 mph - N/A   Clear
6:52 PM 71.1 °F - 39.0 °F 31% 29.80 in 10.0 mi East 15.0 mph - N/A   Clear
7:52 PM 69.1 °F - 39.0 °F 33% 29.80 in 10.0 mi East 11.5 mph - N/A   Clear
8:52 PM 66.0 °F - 41.0 °F 40% 29.80 in 10.0 mi East 11.5 mph - N/A   Clear
9:52 PM 62.1 °F - 42.1 °F 48% 29.81 in 10.0 mi East 9.2 mph - N/A   Clear
10:52 PM 60.8 °F - 42.8 °F 52% 29.83 in 10.0 mi East 9.2 mph - N/A   Clear
11:52 PM 59.0 °F - 41.0 °F 51% 29.82 in 10.0 mi East 10.4 mph - N/A   Clear